sat.trackr.live / text

‹ back to catalog

STARLINK-36558

NORAD 67499 · 2026-012G

PAYLOAD ACTIVE UNKNOWN

§ Identity

Operator
Country
US
Launch date
2026-01-18
Launch site
AFETR
Launch vehicle
Mass (kg)
RCS (m²)

Purposes: comms

External: N2YO · Heavens-Above · Gunter

§ Orbital elements

Epoch: 2026-05-24T16:28:47.468928Z

Period
94.27 min
Inclination
43.0008°
Eccentricity
0.0001786
Mean motion
15.27587102 rev/d
Perigee alt
481.8 km
Apogee alt
484.3 km
Semi-major
6,861.2 km
B*
5.2355e-4
RAAN
245.3098°
Arg perigee
271.0297°
Mean anomaly
89.0350°
Rev number
1,938

§ Raw data

STARLINK-365581 67499U 26012G   26144.68666052  .00014176  00000+0  52355-3 0  99932 67499  43.0008 245.3098 0001786 271.0297  89.0350 15.27587102 19387

JSON: /api/v1/satellites/67499 · /tle

For live sub-satellite position, see the globe view (requires WebGL).

§ Visibility from observer

Set your observer location to see the next 7 days of passes ≥ 10°. The values pass through the URL so the page stays shareable.

No JS? Fill the form by hand. The geolocation button needs JavaScript.